Wind_Speed
80 84 87 91 93 96 100 101 105 105 106 109 109 113 114 114 115 115 115 112 110 109 109 109 108 103 99 97 94 86 80 77 72 70 69 68 65 62
85 91 92 94 96 100 101 105 107 107 103 106 107 111 116 120 121 119 116 112 112 114 114 113 107 101 99 93 86 80 75 69 67 64 63 62 59 58
91 94 95 94 96 100 103 104 105 106 104 104 107 111 115 117 119 118 116 117 118 118 117 114 108 100 96 88 79 75 71 66 65 62 60 58 55 55
87 90 92 94 97 97 100 101 103 105 106 105 107 109 111 116 117 120 119 119 120 120 118 114 107 96 88 81 77 72 68 61 58 55 55 54 53 51
85 89 91 90 93 96 98 98 102 105 107 106 104 108 111 116 118 120 122 123 120 118 115 106 96 86 81 77 73 71 65 59 54 48 52 49 48 48
80 83 86 90 92 95 97 98 101 101 103 106 110 111 114 116 120 124 125 121 115 111 102 92 86 80 77 70 68 65 62 57 50 45 48 50 47 46
81 85 87 90 92 93 93 93 95 99 106 111 114 118 117 118 123 125 125 119 109 101 88 85 81 74 71 66 64 60 56 54 49 44 44 47 47 44
80 83 87 90 90 89 88 92 101 103 108 116 118 119 116 119 121 121 121 114 103 95 85 78 75 71 68 65 60 56 54 51 47 42 43 43 45 44
78 80 81 82 86 87 92 96 100 109 118 121 118 118 119 120 119 115 112 105 97 91 82 75 71 67 66 62 56 52 50 49 46 41 42 42 42 43
77 81 82 87 89 90 94 98 103 113 117 119 119 119 120 118 116 110 105 99 91 86 79 70 69 65 63 59 53 51 47 47 45 40 41 41 40 39
85 85 87 90 93 93 97 102 108 114 117 115 116 118 115 112 110 105 99 94 88 82 75 66 67 65 62 59 52 50 46 45 43 39 39 38 38 37
90 89 90 90 95 101 106 110 112 114 112 110 113 112 109 107 104 99 93 87 82 77 75 67 65 61 60 56 49 46 44 42 40 37 36 36 36 36
91 88 93 97 100 106 112 117 117 113 110 111 108 103 102 100 96 92 87 82 78 73 69 64 62 56 53 53 48 42 42 40 37 35 35 33 34 34
93 93 97 100 106 113 115 117 116 113 111 106 103 100 98 94 88 83 81 79 74 69 65 59 57 53 50 48 45 40 38 38 35 33 33 32 32 32
98 100 101 106 111 113 116 115 116 114 111 107 101 98 94 89 83 79 76 74 69 64 59 55 52 49 46 44 41 38 35 35 34 31 31 31 30 31
105 104 106 110 112 115 116 119 116 115 110 103 99 95 90 85 81 76 72 67 65 59 57 53 49 45 42 40 38 34 34 32 32 30 30 28 30 31
110 113 113 114 115 117 121 119 118 115 108 103 96 91 86 82 77 72 66 62 59 55 53 48 45 42 38 36 34 32 31 30 28 28 27 27 29 30
118 116 116 116 117 118 118 117 114 107 102 97 93 87 83 77 72 66 62 58 54 51 50 45 42 39 36 35 32 31 29 27 26 26 26 27 27 27
119 119 118 117 119 121 117 112 107 102 97 92 88 84 78 71 67 63 58 55 51 49 45 42 39 37 34 33 31 28 28 26 25 25 26 26 25 26
122 121 120 121 120 117 112 108 102 97 92 88 83 77 72 67 62 58 55 52 48 46 42 40 37 34 31 31 29 26 26 25 24 24 25 24 24 25
125 125 124 122 117 112 106 101 96 91 88 84 78 73 67 63 59 56 52 50 45 44 40 38 35 32 29 29 27 26 25 24 23 24 24 22 23 24
125 124 122 116 110 105 100 95 92 87 84 78 73 69 64 59 56 53 49 46 41 41 38 35 33 31 28 27 25 25 24 23 22 23 23 21 22 23
122 119 112 108 103 100 95 90 88 82 77 72 68 64 60 55 53 50 45 42 38 38 36 33 31 29 27 26 24 24 23 21 21 22 22 21 21 22
Wind_Direction
294 294 294 296 295 296 299 300 301 302 304 305 307 308 309 309 310 311 312 312 310 311 310 310 310 309 308 306 302 297 292 289 288 286 283 279 276 272
289 291 292 294 295 297 299 300 301 303 304 305 308 308 309 310 311 311 311 311 312 311 311 310 311 311 309 305 301 297 294 292 290 287 283 279 276 271
288 291 292 294 295 297 300 302 303 304 306 307 308 308 308 309 310 311 312 312 312 312 312 312 312 311 308 304 300 298 296 295 292 289 284 280 275 269
289 291 293 295 297 300 301 302 303 304 306 307 307 308 310 310 310 311 312 311 312 311 311 312 311 309 307 303 302 299 296 294 290 287 282 278 273 268
289 292 296 300 299 299 300 303 303 306 306 307 310 310 311 311 311 310 310 310 310 310 311 311 308 308 305 302 300 298 297 295 291 286 280 276 271 267
294 296 295 297 299 300 303 305 305 306 310 311 313 313 313 312 311 310 310 311 312 312 311 310 308 307 303 302 299 297 295 293 289 283 278 275 270 264
294 296 298 300 302 304 304 305 308 313 313 314 314 315 314 312 311 310 310 312 313 312 312 310 309 306 302 300 296 294 292 290 288 283 275 272 269 262
298 299 300 302 305 305 305 310 313 315 314 315 316 314 312 312 311 310 310 312 312 312 312 311 309 306 302 299 298 296 292 289 287 283 275 269 267 263
302 303 303 306 309 307 307 313 315 316 316 316 314 314 313 312 310 310 311 311 313 311 311 311 308 305 301 299 299 296 292 288 286 282 276 270 265 263
302 303 302 306 307 309 312 313 313 314 314 315 315 315 314 312 310 311 311 311 312 310 311 310 306 303 300 298 298 295 293 288 286 282 276 272 267 261
304 303 306 308 309 310 311 312 314 313 313 314 315 315 313 311 311 311 311 311 311 310 309 310 305 303 300 298 298 295 291 287 284 281 275 272 267 262
303 301 304 308 313 313 313 313 313 312 313 315 316 315 312 311 311 311 311 311 310 310 309 310 304 302 299 298 297 293 288 285 282 280 273 269 265 260
303 308 312 314 314 314 315 315 314 313 315 316 315 313 311 311 311 311 311 311 310 308 308 307 303 302 298 297 295 291 287 284 282 278 272 267 263 258
305 313 314 313 313 314 314 314 315 315 317 315 314 313 312 311 311 311 310 309 308 308 308 305 302 301 298 296 294 291 286 283 280 274 272 268 261 258
314 314 314 313 313 315 315 316 317 317 317 316 315 313 311 311 310 310 310 308 307 307 305 303 302 299 298 297 294 290 285 282 279 274 269 266 260 256
317 315 312 312 314 315 316 317 318 318 317 316 314 312 311 311 311 311 309 308 307 307 305 305 303 300 297 293 291 288 283 279 276 273 269 265 259 256
316 313 313 314 315 316 318 318 319 318 317 315 313 312 311 311 310 311 309 308 306 306 303 303 301 299 297 293 291 287 281 279 276 273 270 264 259 255
314 313 314 315 315 317 318 318 318 316 315 313 312 311 311 311 310 309 308 307 306 304 303 303 302 299 297 292 289 286 282 277 276 272 269 264 260 257
312 313 314 315 316 317 317 317 316 315 313 312 311 311 311 310 309 308 308 306 306 303 302 301 299 296 293 289 288 285 281 278 275 272 267 263 260 255
312 312 314 315 315 315 316 316 315 314 312 311 311 310 310 309 308 306 306 305 304 301 301 300 298 295 292 287 286 283 277 276 273 269 265 262 257 251
311 312 313 313 314 315 315 314 313 312 311 311 310 309 308 308 306 305 304 303 303 300 301 299 297 294 290 285 284 280 276 275 271 265 263 260 254 248
310 310 311 312 313 314 313 313 311 311 311 310 309 307 307 306 304 303 303 302 301 298 299 297 294 291 288 284 281 277 275 272 268 264 261 257 250 243
308 309 310 312 312 312 312 311 310 310 310 309 308 307 306 304 302 301 301 300 299 296 296 293 291 289 286 282 279 276 272 269 263 261 258 252 243 239
Height
10518 10510 10502 10493 10485 10476 10468 10459 10450 10446 10434 10409 10394 10374 10363 10354 10343 10334 10320 10306 10291 10276 10260 10245 10230 10216 10203 10190 10178 10170 10163 10155 10149 10144 10138 10134 10133 10134
10504 10495 10487 10479 10469 10458 10449 10439 10428 10418 10414 10394 10378 10361 10337 10318 10309 10299 10287 10274 10259 10243 10227 10212 10198 10185 10173 10160 10146 10138 10133 10129 10123 10119 10114 10110 10110 10110
10489 10477 10468 10460 10454 10442 10431 10419 10407 10394 10389 10377 10359 10341 10324 10303 10286 10272 10257 10242 10227 10212 10196 10181 10166 10154 10143 10131 10122 10114 10109 10105 10099 10095 10090 10088 10088 10088
10471 10461 10450 10445 10434 10424 10412 10400 10387 10373 10363 10357 10341 10322 10303 10284 10264 10244 10231 10218 10204 10188 10171 10156 10140 10128 10118 10105 10097 10091 10087 10085 10081 10076 10071 10069 10069 10070
10453 10443 10435 10427 10416 10405 10393 10382 10367 10354 10339 10329 10320 10302 10283 10258 10241 10225 10207 10193 10179 10164 10149 10133 10115 10107 10095 10086 10077 10069 10065 10063 10061 10059 10052 10052 10052 10053
10438 10429 10419 10409 10398 10388 10375 10360 10347 10333 10317 10302 10289 10277 10259 10238 10214 10195 10179 10164 10154 10140 10124 10108 10093 10086 10073 10067 10059 10052 10046 10044 10043 10042 10036 10033 10035 10036
10420 10409 10400 10390 10380 10368 10358 10342 10326 10310 10292 10276 10263 10244 10229 10210 10186 10166 10146 10133 10124 10110 10101 10086 10072 10064 10053 10047 10041 10037 10032 10027 10025 10024 10021 10017 10017 10019
10404 10393 10380 10369 10360 10348 10335 10321 10305 10286 10271 10251 10239 10219 10205 10183 10165 10142 10120 10105 10098 10085 10074 10065 10051 10041 10031 10026 10022 10018 10012 10008 10007 10006 10003 10002 10000 10001
10383 10373 10361 10349 10339 10329 10316 10300 10281 10260 10238 10224 10209 10193 10172 10154 10136 10119 10100 10085 10074 10061 10052 10044 10030 10021 10011 10007 10004 10000 9995 9990 9988 9988 9986 9985 9985 9984
10365 10354 10344 10331 10319 10307 10295 10281 10266 10247 10227 10205 10181 10164 10146 10126 10104 10090 10076 10062 10052 10039 10031 10025 10010 10002 9994 9989 9988 9982 9979 9974 9972 9972 9969 9968 9968 9970
10343 10332 10320 10307 10295 10283 10274 10260 10248 10229 10210 10188 10164 10141 10119 10100 10079 10065 10056 10042 10030 10019 10010 10007 9992 9984 9976 9970 9970 9967 9963 9959 9956 9956 9955 9954 9953 9955
10325 10312 10300 10285 10269 10255 10242 10229 10219 10202 10186 10172 10147 10122 10098 10079 10060 10044 10033 10023 10012 10000 9987 9985 9976 9969 9959 9953 9954 9951 9947 9944 9942 9942 9942 9941 9940 9942
10304 10287 10273 10260 10245 10229 10212 10195 10180 10169 10154 10135 10118 10099 10079 10061 10045 10027 10011 10001 9992 9982 9974 9968 9957 9953 9946 9938 9936 9936 9932 9930 9929 9929 9927 9928 9928 9929
10280 10265 10252 10237 10222 10205 10188 10170 10151 10134 10118 10103 10086 10068 10052 10037 10024 10011 9996 9983 9974 9964 9957 9951 9943 9937 9931 9926 9921 9921 9918 9916 9917 9916 9915 9915 9916 9918
10256 10243 10229 10215 10198 10181 10163 10143 10123 10106 10090 10074 10058 10042 10027 10015 10004 9992 9980 9966 9956 9949 9942 9937 9929 9923 9917 9911 9909 9907 9905 9903 9903 9904 9903 9904 9905 9906
10230 10217 10205 10190 10173 10154 10135 10115 10096 10079 10063 10049 10035 10021 10008 9994 9982 9972 9961 9950 9939 9932 9925 9918 9913 9909 9905 9900 9897 9896 9892 9893 9892 9893 9892 9893 9893 9895
10204 10191 10175 10160 10143 10127 10108 10089 10071 10055 10038 10022 10008 9997 9986 9975 9961 9952 9943 9935 9925 9917 9911 9906 9901 9897 9893 9889 9887 9884 9883 9882 9882 9881 9881 9882 9883 9885
10176 10162 10147 10132 10116 10101 10084 10068 10050 10033 10017 10001 9986 9975 9965 9955 9943 9934 9926 9918 9911 9904 9897 9893 9888 9884 9881 9878 9876 9873 9873 9873 9872 9871 9871 9872 9873 9876
10149 10133 10119 10103 10087 10072 10057 10042 10027 10011 9995 9981 9968 9955 9946 9937 9927 9917 9910 9903 9897 9891 9887 9882 9878 9874 9872 9868 9865 9864 9862 9862 9862 9862 9862 9863 9865 9866
10119 10104 10089 10074 10059 10045 10030 10015 10002 9987 9973 9960 9948 9937 9928 9919 9911 9903 9896 9889 9884 9878 9874 9869 9866 9863 9861 9857 9856 9855 9853 9853 9853 9853 9853 9855 9856 9857
10090 10073 10059 10046 10033 10019 10004 9990 9977 9965 9952 9939 9928 9918 9911 9903 9895 9888 9882 9875 9870 9865 9861 9857 9855 9853 9851 9848 9846 9845 9844 9845 9845 9845 9845 9847 9848 9849
10065 10050 10035 10020 10007 9992 9979 9966 9953 9941 9929 9919 9910 9899 9893 9887 9880 9873 9868 9863 9858 9853 9850 9847 9845 9843 9842 9839 9838 9837 9836 9837 9837 9837 9838 9840 9841 9842
10037 10023 10007 9993 9979 9967 9955 9942 9929 9919 9909 9899 9891 9882 9875 9870 9864 9859 9855 9850 9846 9842 9839 9837 9835 9833 9832 9830 9829 9829 9829 9830 9830 9830 9831 9833 9834 9836